Espace membre
Imprimable
Auderghem, 29/10/2017, BEL - Trail Brussel
Liste des rapports > 28km - Classement
Recherche: Page: [1]
54 Entrées
 
Les réclamations ne sont plus acceptées, les résultats sont considérés comme définitifs.
RangNrNomAgeIOCEquipeRéelTempsTkmMoy.ScrLocalité
Vos photos grâce à Sportograf1.2214FCLAUS Sofie39BEL2:08:442:08:454:36 13.0538SINAAI
Vos photos grâce à Sportograf2.2151FCOLVIN Rhea25CAN2:22:132:22:395:06 11.78102BRUXELLES
Vos photos grâce à Sportograf3.286FODEYN Joke32BEL2:25:552:26:035:13 11.50131
Vos photos grâce à Sportograf4.298FPIPELERS Peregrine36BEL2:33:472:33:525:30 10.92193
Vos photos grâce à Sportograf5.157FFAUVET Mélisande29BEL2:34:462:35:445:34 10.79205
Vos photos grâce à Sportograf6.185FHAHN Rachel24USA2:36:012:36:325:36 10.73210
Vos photos grâce à Sportograf7.28FBILLAUT Anne Sophie33BEL2:38:592:39:185:42 10.55228
Vos photos grâce à Sportograf8.269FMOENS Maud28BEL2:39:482:40:195:44 10.48233
Vos photos grâce à Sportograf9.156FFAICT Celine28FRA2:41:212:41:515:47 10.38241
Vos photos grâce à Sportograf10.229FLAURENTSYEVA Nadzeya29BLR2:41:212:42:045:48 10.37245
Vos photos grâce à Sportograf11.424FVLAEMMINCK-DECOMBELE Laetitia22BEL2:42:452:42:545:50 10.31251
Vos photos grâce à Sportograf12.271FMOFOLO Relebohile31LSO2:42:112:43:085:50 10.30255
Vos photos grâce à Sportograf13.33FBORGOO Caroline28BEL2:42:402:43:095:50 10.30256
Vos photos grâce à Sportograf14.177FGOVAERTS Lieve34BEL2:42:592:43:385:51 10.27258
Vos photos grâce à Sportograf15.414FVERELST Anik37BEL2:43:342:43:595:52 10.25262
Vos photos grâce à Sportograf16.61FCAZIER Isabelle39BEL2:43:582:44:015:52 10.24263
Vos photos grâce à Sportograf17.39FBRASLAVA Mara25LVA2:44:372:45:295:55 10.15274
Vos photos grâce à Sportograf18.351FSTUHLMANN Anne31GER2:45:112:46:055:56 10.12277
Vos photos grâce à Sportograf19.64FCHHUN Siev You34FRA2:47:072:47:356:00 10.03282
Vos photos grâce à Sportograf20.2296FENCKELS Barbara39BEL2:48:252:49:166:03 9.93293MECHELEN
Vos photos grâce à Sportograf21.69FCOLLAS Astrid28BEL2:49:282:50:256:06 9.86301
Vos photos grâce à Sportograf22.331FSAMUDIO KOSTINA Ecaterina35COL2:54:152:55:026:16 9.60319
Vos photos grâce à Sportograf23.2210FPRADERA Sabrina32BEL2:55:162:56:086:18 9.54325WALHAIN
Vos photos grâce à Sportograf24.218FKAREKEZI Dorothee26BEL3:00:303:00:346:27 9.30336
Vos photos grâce à Sportograf25.79FCOURRIOL Violaine26BEL2:59:253:00:366:27 9.30338
Vos photos grâce à Sportograf26.428FWASILEWSKA Sylwia33BEL2:59:253:00:366:27 9.30339
Vos photos grâce à Sportograf27.34FBOSSUT Mariannick35BEL3:01:063:02:166:31 9.22342
Vos photos grâce à Sportograf28.242FLONHIENNE Audrey38BEL3:01:053:02:166:31 9.22343
Vos photos grâce à Sportograf29.26FBIALESCHKI Chatty39USA3:02:123:02:586:33 9.18346
Vos photos grâce à Sportograf30.419FVERLOOP Joselien26NLD3:02:553:03:286:34 9.16350
Vos photos grâce à Sportograf31.56FCASANOVA Aline24FRA3:02:453:03:356:34 9.15351
Vos photos grâce à Sportograf32.108FDE MEESTER Eline31BEL3:05:253:06:026:39 9.03362
Vos photos grâce à Sportograf33.2172FTER BEEK Rosie39GBR3:06:043:06:146:40 9.02364BRUXELLES
Vos photos grâce à Sportograf34.360FTOUBEAU Cecile34BEL3:06:253:06:296:40 9.01365
Vos photos grâce à Sportograf35.23FBERGHOLZ Claudia33GER3:06:303:06:406:40 9.00366
Vos photos grâce à Sportograf36.2228FVANDER GHINSTE Audrey21BEL3:07:183:08:466:45 8.90371WESTROZEBEKE
Vos photos grâce à Sportograf37.2211FTUENTER Emmy22NLD3:08:093:09:136:46 8.88376WILRIJK
Vos photos grâce à Sportograf38.361FTRAHÉ Catherine38BEL3:11:233:12:226:53 8.73383
Vos photos grâce à Sportograf39.415FVERGOTE Céline27BEL3:11:563:12:566:54 8.71384
Vos photos grâce à Sportograf40.172FGOFFA Nathalie37BEL3:13:373:14:366:57 8.63388
Vos photos grâce à Sportograf41.202FJAAKKONEN Veera38FIN3:13:493:14:566:58 8.62389
Vos photos grâce à Sportograf42.11FARETS Aurélie26BEL3:14:153:15:256:59 8.60393
Vos photos grâce à Sportograf43.2212FPATTYN Gaia Alessandra25BEL3:19:073:20:067:09 8.40401
Vos photos grâce à Sportograf44.339FSIPVIN Celine39BEL3:19:293:20:197:10 8.39402
Vos photos grâce à Sportograf45.75FCORFERS Elodie26BEL3:20:203:20:297:10 8.38404
Vos photos grâce à Sportograf46.365FTROUILLARD Evy35BEL3:20:363:21:247:12 8.34405
Vos photos grâce à Sportograf47.283FNUITTEN Lidewij25BEL3:21:343:22:487:15 8.28408
Vos photos grâce à Sportograf48.31FBLONDEEL Nina27FRA3:23:163:24:107:18 8.23409
Vos photos grâce à Sportograf49.30FBLONDEEL Marie33FRA3:23:183:24:117:18 8.23410
Vos photos grâce à Sportograf50.390FVAN WEMMEL Els29GER3:24:503:24:567:20 8.20412
Vos photos grâce à Sportograf51.165FGENTELET Joanna29FRA3:23:593:25:037:20 8.19413
Vos photos grâce à Sportograf52.19FBÉGASSE Zelda32FRA3:28:003:28:287:27 8.06416
Vos photos grâce à Sportograf53.62FCHAMALI Iman37BEL3:33:353:33:537:39 7.86424
Vos photos grâce à SportografDSQ99FDE CLIPPELE Céline24BEL2:14:262:15:20
DNF: abandon; DSQ: disqualifié; Vitesse en km/h
Page: [1]